User: anonymous   Login
Location: Austin
(30.3000°N, 97.7500°W)
Time: 03:22:16
(UTC-06:00)
Language:

ARIANE 5 R/B - Orbit

View from above orbital plane
View from above orbital plane
View from above satellite
View from above satellite

Ground track
Ground track

The orbit data is extracted from the following two-line orbital elements,

1 27387U 02009B   23331.92972268  .00000290  00000-0  11423-3 0  9990
2 27387  98.7803 312.9368 0032360 359.7939   0.3227 14.36284618139465
Epoch (UTC): 27 November 2023 22:18:48
Eccentricity: 0.0032360
inclination: 98.7803°
perigee height: 747 km
apogee height: 794 km
right ascension of ascending node: 312.9368°
argument of perigee: 359.7939°
revolutions per day: 14.36284618
mean anomaly at epoch: 0.3227°
orbit number at epoch: 13946

The dashed part of the orbit path shows where the satellite is in the earth's shadow,  

DLR